Greenville, MS

3:43 AM CDT on July 28, 2017 (GMT -0500)
Mid Delta Regional

Weather History for KGLH - October, 2011

Change the Weather History Date:

Thursday, October 20, 2011

  Actual Average Record
Temperature  
Mean Temperature 51 °F 63 °F  
Max Temperature 64 °F 76 °F 90 °F (1941)
Min Temperature 37 °F 51 °F 32 °F (1925)
Degree Days  
Heating Degree Days 14 4  
Month to date heating degree days 53 46  
Since 1 July heating degree days 55 52  
Cooling Degree Days 0 2  
Month to date cooling degree days 54 73  
Year to date cooling degree days 2431 2153  
Moisture  
Dew Point 33 °F    
Average Humidity 56    
Maximum Humidity 85    
Minimum Humidity 27    
Precipitation  
Precipitation 0.00 in 0.16 in 2.05 in (1988)
Month to date precipitation 0.23 2.95  
Year to date precipitation 22.05 40.59  
Sea Level Pressure  
Sea Level Pressure 30.08 in    
Wind  
Wind Speed 8 mph (WNW)    
Max Wind Speed 18 mph    
Max Gust Speed 23 mph    
Visibility 10 miles    
Events      
T = Trace of Precipitation, MM = Missing Value Source: NWS Daily Summary

Daily Weather History Graph

Daily Weather History Graph

Search for Another Location

Airport or City:

Trip Planner

Search our weather history database for the weather conditions in past years. The results will help you decide how hot, cold, wet, or windy it might be!

Date:

Astronomy

Oct. 20, 2011 Rise Set
Actual Time 7:12 AM CDT 6:24 PM CDT
Civil Twilight 6:47 AM CDT 6:49 PM CDT
Nautical Twilight 6:18 AM CDT 7:18 PM CDT
Astronomical Twilight 5:49 AM CDT 7:47 PM CDT
Moon 12:18 AM CDT (10/20) 2:14 PM CDT (10/20)
Length of Visible Light 12h 02m
Length of Day
11h 12m
Last Quarter, 44% of the Moon is Illuminated
Oct 20
Last Quarter
Oct 26
New
Nov 2
First Quarter
Nov 10
Full
Nov 18
Last Quarter

Hourly Weather History & Observations

Time (CDT) Temp. Windchill Dew Point Humidity Pressure Visibility Wind Dir Wind Speed Gust Speed Precip Events Conditions
12:53 AM 41.0 °F 36.4 °F 35.1 °F 79% 30.02 in 10.0 mi WNW 6.9 mph - N/A   Clear
1:53 AM 39.0 °F 33.4 °F 35.1 °F 86% 30.03 in 10.0 mi West 8.1 mph - N/A   Clear
2:53 AM 39.0 °F 33.4 °F 35.1 °F 86% 30.03 in 10.0 mi WNW 8.1 mph - N/A   Clear
3:53 AM 39.0 °F 33.4 °F 35.1 °F 86% 30.04 in 10.0 mi WNW 8.1 mph - N/A   Clear
4:53 AM 37.4 °F 31.4 °F 33.8 °F 87% 30.02 in 10.0 mi West 8.1 mph - N/A   Clear
5:53 AM 37.0 °F 31.0 °F 33.1 °F 86% 30.06 in 10.0 mi West 8.1 mph - N/A   Clear
6:53 AM 39.0 °F 32.8 °F 32.0 °F 76% 30.06 in 10.0 mi WNW 9.2 mph - N/A   Clear
7:53 AM 39.9 °F 33.9 °F 32.0 °F 73% 30.08 in 10.0 mi WNW 9.2 mph - N/A   Clear
8:53 AM 46.0 °F 41.4 °F 33.1 °F 61% 30.10 in 10.0 mi WNW 9.2 mph - N/A   Clear
9:53 AM 52.0 °F - 32.0 °F 47% 30.12 in 10.0 mi WNW 13.8 mph - N/A   Clear
10:53 AM 55.0 °F - 32.0 °F 42% 30.12 in 10.0 mi WNW 13.8 mph - N/A   Clear
11:53 AM 57.0 °F - 32.0 °F 39% 30.10 in 10.0 mi WNW 11.5 mph - N/A   Clear
12:53 PM 59.0 °F - 33.1 °F 38% 30.09 in 10.0 mi WNW 11.5 mph 17.3 mph N/A   Clear
1:53 PM 61.0 °F - 32.0 °F 34% 30.07 in 10.0 mi NW 13.8 mph 17.3 mph N/A   Clear
2:53 PM 62.1 °F - 30.9 °F 31% 30.06 in 10.0 mi NW 11.5 mph 20.7 mph N/A   Clear
3:53 PM 63.0 °F - 30.9 °F 30% 30.06 in 10.0 mi West 10.4 mph - N/A   Clear
4:53 PM 62.1 °F - 28.9 °F 29% 30.06 in 10.0 mi WNW 10.4 mph - N/A   Clear
5:53 PM 60.1 °F - 30.0 °F 32% 30.07 in 10.0 mi NW 9.2 mph - N/A   Clear
6:53 PM 57.2 °F - 30.2 °F 36% 30.06 in 10.0 mi NW 8.1 mph - N/A   Clear
7:53 PM 53.6 °F - 32.0 °F 44% 30.07 in 10.0 mi WNW 6.9 mph - N/A   Clear
8:53 PM 46.0 °F 43.9 °F 35.1 °F 66% 30.10 in 10.0 mi NNW 4.6 mph - N/A   Clear
9:53 PM 42.1 °F - 35.1 °F 76% 30.12 in 10.0 mi Calm Calm - N/A   Clear
10:53 PM 42.1 °F 40.2 °F 36.0 °F 79% 30.14 in 10.0 mi NW 3.5 mph - N/A   Clear
11:53 PM 37.9 °F 34.4 °F 34.0 °F 86% 30.14 in 10.0 mi NNW 4.6 mph - N/A   Clear